User: anonymous   Login
Location: Poughquag
(41.6090°N, 73.6820°W)
Time: 15:28:58
(UTC-05:00)
Language:

Envisat - Orbit

View from above orbital plane
View from above orbital plane
View from above satellite
View from above satellite

Ground track
Ground track

The orbit data is extracted from the following two-line orbital elements,

1 27386U 02009A   20055.53421852  .00000012  00000-0  17455-4 0  9998
2 27386  98.1398  68.5551 0001223  95.5187  54.6191 14.37972353942240
Epoch (UTC): 24 February 2020 12:49:16
Eccentricity: 0.0001223
inclination: 98.1398°
perigee height: 764 km
apogee height: 766 km
right ascension of ascending node: 68.5551°
argument of perigee: 95.5187°
revolutions per day: 14.37972353
mean anomaly at epoch: 54.6191°
orbit number at epoch: 94224

The dashed part of the orbit path shows where the satellite is in the earth's shadow,  

DLR